FW4637 Weather Reports


time (UTC)temp
C
wind
direction
speed
KPH
gust
KPH
rain 1hr
cm
rain 24hr
cm
rain mn
cm
humidity
%
barometer
mb
20260503212217 17 200 6.4 17.7 0.00 0.00 0.00 67 1012.9
20260503211503 17 221 6.4 16.1 0.00 0.00 0.00 68 1012.8
20260503211003 17 242 4.8 16.1 0.00 0.00 0.00 68 1012.5
20260503210503 17 214 6.4 12.9 0.00 0.00 0.00 66 1012.6
20260503210003 17 214 6.4 14.5 0.00 0.00 0.00 70 1012.6
20260503205503 17 236 4.8 14.5 0.00 0.00 0.00 68 1012.8
20260503205003 17 207 4.8 11.3 0.00 0.00 0.00 69 1012.8
20260503204503 17 224 4.8 16.1 0.00 0.00 0.00 71 1012.7
20260503204217 17 248 4.8 16.1 0.00 0.00 0.00 71 1012.7
20260503203503 16 286 4.8 12.9 0.00 0.00 0.00 70 1012.8
20260503203003 17 251 4.8 12.9 0.00 0.00 0.00 70 1012.8
20260503202503 16 225 6.4 16.1 0.00 0.00 0.00 71 1012.9
20260503202003 17 193 6.4 16.1 0.00 0.00 0.00 70 1012.9
20260503201503 17 201 4.8 12.9 0.00 0.00 0.00 71 1013.0
20260503201003 17 207 4.8 12.9 0.00 0.00 0.00 71 1012.9
20260503200503 17 202 4.8 12.9 0.00 0.00 0.00 71 1013.0
20260503200003 17 213 3.2 12.9 0.00 0.00 0.00 71 1013.0
20260503195503 16 245 4.8 19.3 0.00 0.00 0.00 72 1012.9
20260503195003 16 223 6.4 19.3 0.00 0.00 0.00 72 1013.0
20260503194716 16 208 6.4 19.3 0.00 0.00 0.00 72 1013.0
20260503194217 17 202 6.4 19.3 0.00 0.00 0.00 72 1013.0
20260503193503 17 217 4.8 19.3 0.00 0.00 0.00 70 1013.0
20260503193003 17 229 4.8 17.7 0.00 0.00 0.00 70 1013.0
20260503192503 17 212 4.8 17.7 0.00 0.00 0.00 68 1013.0
20260503192003 17 218 4.8 14.5 0.00 0.00 0.00 68 1012.9
20260503191503 17 234 4.8 14.5 0.00 0.00 0.00 66 1013.0
20260503191219 17 245 4.8 14.5 0.00 0.00 0.00 67 1012.9
20260503190503 17 214 6.4 16.1 0.00 0.00 0.00 69 1013.0
20260503190003 17 233 4.8 16.1 0.00 0.00 0.00 68 1012.9
20260503185503 18 213 4.8 12.9 0.00 0.00 0.00 68 1013.0
20260503185003 17 201 6.4 14.5 0.00 0.00 0.00 69 1012.9
20260503184503 17 208 4.8 14.5 0.00 0.00 0.00 70 1012.9
20260503184217 17 225 4.8 14.5 0.00 0.00 0.00 70 1012.9
20260503183719 17 246 4.8 17.7 0.00 0.00 0.00 70 1013.0
20260503183003 17 243 4.8 17.7 0.00 0.00 0.00 71 1012.9
20260503182503 17 212 6.4 14.5 0.00 0.00 0.00 72 1012.9
20260503182004 17 201 4.8 14.5 0.00 0.00 0.00 73 1012.8
20260503181504 16 244 3.2 12.9 0.00 0.00 0.00 75 1012.9
20260503181003 16 272 3.2 14.5 0.00 0.00 0.00 79 1012.9
20260503180503 15 269 4.8 14.5 0.00 0.00 0.00 79 1012.9
20260503180003 15 268 4.8 11.3 0.00 0.00 0.00 80 1012.9
20260503175718 15 266 4.8 12.9 0.00 0.00 0.00 79 1012.9
20260503175003 15 287 4.8 12.9 0.00 0.00 0.00 80 1012.8
20260503174503 15 284 4.8 14.5 0.00 0.00 0.00 80 1013.0
20260503174217 15 269 4.8 14.5 0.00 0.00 0.00 79 1012.9
20260503173503 15 234 3.2 11.3 0.00 0.00 0.00 77 1012.9
20260503173003 15 211 4.8 14.5 0.00 0.00 0.00 77 1012.9
20260503172716 15 220 3.2 14.5 0.00 0.00 0.00 76 1012.9
20260503172003 15 250 3.2 11.3 0.00 0.00 0.00 76 1012.9
20260503171503 15 214 3.2 9.7 0.00 0.00 0.00 77 1012.8
20260503171003 15 199 3.2 8.0 0.00 0.00 0.00 78 1013.0
20260503170503 15 196 3.2 8.0 0.00 0.00 0.00 79 1012.9
20260503151003 13 208 1.6 4.8 0.00 0.00 0.00 84 1012.3
20260503150719 13 223 1.6 4.8 0.00 0.00 0.00 84 1012.4
20260503150216 13 239 0.0 4.8 0.00 0.00 0.00 84 1012.3
20260503131003 12 267 0.0 4.8 0.00 0.00 0.00 85 1010.8
20260503130718 12 258 0.0 4.8 0.00 0.00 0.00 85 1010.7
20260503110503 12 258 0.0 4.8 0.00 0.00 0.00 87 1010.9
20260503090503 12 262 1.6 8.0 0.00 0.00 0.00 86 1011.2
20260503090218 12 255 1.6 8.0 0.00 0.00 0.00 86 1011.2
20260503081503 12 259 0.0 3.2 0.00 0.00 0.00 86 1011.7
20260503081003 12 279 1.6 4.8 0.00 0.00 0.00 86 1011.6
20260503080716 12 269 1.6 6.4 0.00 0.00 0.00 86 1011.7
20260503072716 12 262 3.2 11.3 0.00 0.00 0.00 87 1011.7
20260503072003 12 263 3.2 11.3 0.00 0.00 0.00 86 1011.6
20260503071503 12 260 1.6 11.3 0.00 0.00 0.00 87 1011.7
20260503071219 12 259 1.6 11.3 0.00 0.00 0.00 87 1011.7
20260503070503 12 266 1.6 8.0 0.00 0.00 0.00 87 1011.8
20260503055003 12 266 3.2 12.9 0.00 0.00 0.00 86 1012.1
20260503054503 12 261 3.2 12.9 0.00 0.00 0.00 85 1012.1
20260503054003 12 258 3.2 12.9 0.00 0.00 0.00 85 1012.1
20260503053503 12 258 1.6 11.3 0.00 0.00 0.00 85 1012.3
20260503053003 12 278 1.6 8.0 0.00 0.00 0.00 86 1012.3
20260503052503 12 271 1.6 11.3 0.00 0.00 0.00 86 1012.2
20260503052003 12 269 1.6 11.3 0.00 0.00 0.00 86 1012.2
20260503051503 12 267 3.2 9.7 0.00 0.00 0.00 86 1012.2
20260503051003 12 265 1.6 9.7 0.00 0.00 0.00 86 1012.2
20260503050503 12 278 1.6 6.4 0.00 0.00 0.00 86 1012.1
20260503050003 12 286 1.6 9.7 0.00 0.00 0.00 86 1012.1
20260503045503 12 274 1.6 9.7 0.00 0.00 0.00 85 1012.2
20260503045218 12 266 1.6 8.0 0.00 0.00 0.00 85 1012.2
20260503044503 12 272 3.2 9.7 0.00 0.00 0.00 85 1012.2
20260503044216 12 270 3.2 9.7 0.00 0.00 0.00 85 1012.2
20260503043503 12 254 3.2 6.4 0.00 0.00 0.00 85 1011.9
20260503043218 12 260 3.2 11.3 0.00 0.00 0.00 86 1012.0
20260503042719 12 266 3.2 11.3 0.00 0.00 0.00 86 1012.1
20260503042003 12 269 3.2 14.5 0.00 0.00 0.00 86 1012.0
20260503041503 12 273 3.2 11.3 0.00 0.00 0.00 86 1012.0
20260503041218 12 271 3.2 11.3 0.00 0.00 0.00 86 1011.9
20260503040503 12 265 3.2 12.9 0.00 0.00 0.00 86 1012.1
20260503040003 12 255 3.2 12.9 0.00 0.00 0.00 85 1012.0
20260503035503 12 254 1.6 9.7 0.00 0.00 0.00 86 1011.8
20260503035003 12 265 1.6 9.7 0.00 0.00 0.00 85 1011.9
20260503034503 12 270 1.6 8.0 0.00 0.00 0.00 85 1012.0
20260503034216 12 291 3.2 9.7 0.00 0.00 0.00 86 1011.8
20260503033503 12 300 1.6 9.7 0.00 0.00 0.00 86 1011.7
20260503033218 12 279 1.6 9.7 0.00 0.00 0.00 86 1011.6
20260503032503 12 268 3.2 12.9 0.00 0.00 0.00 86 1011.6
20260503032003 12 268 4.8 14.5 0.00 0.00 0.00 86 1011.4
20260503031503 12 268 3.2 14.5 0.00 0.00 0.00 86 1011.3
20260503031218 12 269 3.2 14.5 0.00 0.00 0.00 86 1011.3
20260503030503 12 266 3.2 11.3 0.00 0.00 0.00 86 1011.2
20260503030003 12 266 3.2 16.1 0.00 0.00 0.00 86 1011.2
20260503025503 12 277 3.2 16.1 0.00 0.00 0.00 86 1011.3
20260503025003 12 273 4.8 11.3 0.00 0.00 0.00 86 1011.1
20260503024718 12 271 4.8 12.9 0.00 0.00 0.00 86 1011.2
20260503024003 12 271 4.8 16.1 0.00 0.00 0.00 85 1011.1
20260503023717 12 267 4.8 16.1 0.00 0.00 0.00 85 1011.1
20260503023003 13 265 4.8 14.5 0.00 0.00 0.00 85 1011.2
20260503022503 13 274 3.2 11.3 0.00 0.00 0.00 84 1011.2
20260503022003 13 273 3.2 14.5 0.00 0.00 0.00 85 1011.1
20260503021503 13 261 3.2 14.5 0.00 0.00 0.00 85 1011.2
20260503021003 13 263 3.2 14.5 0.00 0.00 0.00 85 1011.2
20260503020503 13 271 4.8 14.5 0.00 0.00 0.00 84 1011.3
20260503020003 13 273 3.2 12.9 0.00 0.00 0.00 84 1011.2
20260503015503 13 265 3.2 12.9 0.00 0.00 0.00 83 1011.4
20260503015003 13 256 3.2 9.7 0.00 0.00 0.00 83 1011.4
20260503014503 13 255 4.8 16.1 0.00 0.00 0.00 83 1011.4
20260503014003 13 261 4.8 16.1 0.00 0.00 0.00 83 1011.4
20260503013503 13 267 4.8 12.9 0.00 0.00 0.00 82 1011.4
20260503013003 13 263 4.8 12.9 0.00 0.00 0.00 82 1011.5
20260503012503 13 255 4.8 16.1 0.00 0.00 0.00 82 1011.5
20260503012003 13 261 3.2 16.1 0.00 0.00 0.00 81 1011.5
20260503011503 13 277 4.8 12.9 0.00 0.00 0.00 81 1011.6
20260503011003 13 264 4.8 14.5 0.00 0.00 0.00 81 1011.6
20260503010503 13 266 4.8 17.7 0.00 0.00 0.00 81 1011.6
20260503010003 13 279 4.8 17.7 0.00 0.00 0.00 80 1011.7
20260503005503 14 272 3.2 9.7 0.00 0.00 0.00 80 1011.5
20260503005003 14 260 4.8 16.1 0.00 0.00 0.00 80 1011.6
20260503004503 13 264 4.8 16.1 0.00 0.00 0.00 80 1011.5
20260503004219 14 266 3.2 16.1 0.00 0.00 0.00 79 1011.5
20260503003503 14 273 4.8 20.9 0.00 0.00 0.00 80 1011.6
20260503003003 14 270 6.4 20.9 0.00 0.00 0.00 80 1011.7
20260503002503 14 267 4.8 16.1 0.00 0.00 0.00 79 1011.7
20260503002219 14 267 4.8 16.1 0.00 0.00 0.00 79 1011.7
20260503001503 14 263 3.2 12.9 0.00 0.00 0.00 78 1011.8
20260503001003 14 264 4.8 12.9 0.00 0.00 0.00 79 1011.7
20260503000503 14 269 4.8 12.9 0.00 0.00 0.00 78 1011.7
20260503000003 15 287 4.8 12.9 0.00 0.00 0.00 78 1011.9
20260502235720 15 286 3.2 12.9 0.00 0.00 0.00 77 1011.8
20260502235003 15 263 4.8 17.7 0.00 0.00 0.00 78 1011.9
20260502234503 15 270 4.8 17.7 0.00 0.00 0.00 77 1011.9
20260502234003 15 270 4.8 16.1 0.00 0.00 0.00 75 1012.0
20260502233503 15 255 3.2 9.7 0.00 0.00 0.00 76 1012.0
20260502233003 15 248 4.8 17.7 0.00 0.00 0.00 76 1012.0
20260502232503 15 239 4.8 17.7 0.00 0.00 0.00 74 1012.1
20260502232218 15 236 3.2 17.7 0.00 0.00 0.00 73 1012.1
20260502231503 15 236 3.2 11.3 0.00 0.00 0.00 74 1012.2
20260502231216 15 239 4.8 11.3 0.00 0.00 0.00 75 1012.2
20260502230717 15 255 4.8 11.3 0.00 0.00 0.00 75 1012.3
20260502230218 15 263 4.8 12.9 0.00 0.00 0.00 75 1012.3
20260502225503 16 257 3.2 11.3 0.00 0.00 0.00 74 1012.5
20260502225003 16 228 3.2 11.3 0.00 0.00 0.00 75 1012.6
20260502224503 16 231 3.2 11.3 0.00 0.00 0.00 75 1012.5
20260502224003 15 256 3.2 14.5 0.00 0.00 0.00 76 1012.5
20260502223503 15 255 3.2 14.5 0.00 0.00 0.00 75 1012.7
20260502223003 15 252 4.8 19.3 0.00 0.00 0.00 76 1012.8
20260502222717 15 245 4.8 19.3 0.00 0.00 0.00 77 1012.9
20260502222003 15 236 4.8 19.3 0.00 0.00 0.00 76 1012.9
20260502221503 15 252 6.4 16.1 0.00 0.00 0.00 77 1012.9
20260502221216 15 253 4.8 14.5 0.00 0.00 0.00 77 1013.0
20260502220503 15 248 4.8 12.9 0.00 0.00 0.00 77 1013.1
20260502220218 15 243 4.8 12.9 0.00 0.00 0.00 77 1013.1
20260502215503 15 249 4.8 16.1 0.00 0.00 0.00 77 1013.0
20260502215003 15 260 4.8 16.1 0.00 0.00 0.00 78 1013.1
20260502214503 15 250 4.8 14.5 0.00 0.00 0.00 76 1013.1
20260502214003 15 255 6.4 14.5 0.00 0.00 0.00 77 1013.1
20260502213719 15 256 6.4 14.5 0.00 0.00 0.00 77 1013.2
20260502213003 15 258 4.8 17.7 0.00 0.00 0.00 75 1013.1
20260502212503 15 245 3.2 17.7 0.00 0.00 0.00 73 1013.3